Portada
METAR-TAF:

METAR-TAF

Aeroports :

Narrabri, Austràlia

latitud: 30-19-09S, longitud: 149-49-38E, altitud: 240 m

Observació

L'informe es va fer fa 30 minuts, a les 16:00 UTC
Vent 2 kt del Sud/Sud-Est
Temperatura 19°C
Humitat 60%
Pressió 1021 hPa
Visibilitat 10 km o més

METAR: YNBR 201600Z AUTO 15002KT 9999 // NCD 19/11 Q1021

Hora: 02:30 (16:30 UTC)


TAF: manca

Observacions i pronòstics meteorològics de més de 4000 aeroports (METAR i TAF).

Les estacions disponibles són els punts grocs i vermells al mapa.

Posi el ratolí al punt desitjat per veure el nom de l'estació.

Feu clic per veure les observacions i els pronòstics meteorològics.

Per canviar el mapa: feu clic els botons verds amb una creu de color negre per apropar; al botó verd amb un guió per allunyar la imatge; o en les fletxes verdes per a mapes adjacents.


METAR-TAF: